Regional Weather Roundup
Issued by NWS Charleston, SC

Current Version | Previous Version | Graphics & Text | Print | Product List | Glossary On
Versions: 1 2 3 4 5 6 7 8 9 10 11 12 13 14 15 16 17 18 19 20 21 22 23 24 25 26 27 28 29 30 31 32 33 34 35 36 37 38 39 40 41 42 43 44 45 46 47 48 49 50
000
ASUS42 KCHS 070427
RWRCHS

REGIONAL WEATHER ROUNDUP
NATIONAL WEATHER SERVICE CHARLESTON SC
1100 PM EST TUE DEC 06 2016

NOTE: "FAIR" INDICATES FEW OR NO CLOUDS BELOW 12,000 FEET WITH NO
SIGNIFICANT WEATHER AND/OR OBSTRUCTIONS TO VISIBILITY.

NOT ALL STATIONS ARE QUALITY CONTROLLED. USE DATA WITH CAUTION...
ESPECIALLY DEWPOINT OBSERVATIONS.

SCZ027-030-031-034>040-042>050-070500-
...SOUTHEAST SOUTH CAROLINA...

CITY           SKY/WX    TMP DP  RH WIND       PRES   REMARKS
N CHARLESTON   MOCLDY    53  51  93 NW10      29.89R
WATERFRONT PRK   N/A     56  54  93 NW7       29.87R
MOUNT PLEASANT MOCLDY    54  52  94 NW9       29.89R
JOHNS ISLAND   FAIR      55  54  94 NW7       29.90R
PINOPOLIS        N/A     54  54 100 N8        29.82R
MONCKS CORNER  CLOUDY    52  50  93 CALM      29.91R
SUMMERVILLE    CLOUDY    52  52 100 CALM      29.92R
BEAUFORT MCAS  CLEAR     56  54  93 NW3       29.90R
BEAUFORT ARPT  FAIR      55  54  94 NW3       29.91R
HILTON HEAD IS CLEAR     57  55  94 CALM      29.92R
WALTERBORO     CLEAR     52 N/A N/A CALM      29.92R HAZE
ALLENDALE      FAIR      52  52 100 CALM      29.91R FOG

...SOUTHERN MIDLANDS AND PEE DEE...

CITY           SKY/WX    TMP DP  RH WIND       PRES   REMARKS
GEORGETOWN     CLOUDY    52  50  93 NW9G17    29.91R
KINGSTREE      CLOUDY    50  46  87 NW3       29.91S
ORANGEBURG     CLOUDY    51  50  96 NW3       29.91R
BARNWELL       NOT AVBL
AIKEN          FOG       46  46 100 CALM      29.94R VSB 1/2
MANNING        CLOUDY    50  48  93 CALM      29.91S
COLUMBIA       CLOUDY    50  46  86 CALM      29.90S
SUMTER         CLOUDY    49  47  92 W3        29.88S
FLORENCE       CLOUDY    49  48  97 W3        29.90S
MYRTLE BEACH   CLOUDY    54  48  82 NW10G18   29.90R
N MYRTLE BEACH CLOUDY    52  50  93 NW9G17    29.87R

$$

GAZ063-065-086>088-099>101-113>116-118-119-134>141-150-070500-
...SOUTHEAST GEORGIA...

CITY           SKY/WX    TMP DP  RH WIND       PRES   REMARKS
SAVANNAH ARPT  CLEAR     57  54  89 NW3       29.92R
HUNTER AAF     PTCLDY    58  58 100 W3        29.89R
FORT STEWART   PTCLDY    56  54  92 CALM      29.90R
STATESBORO     NOT AVBL
SYLVANIA       CLOUDY   N/A N/A N/A CALM      29.92S
CLAXTON        FAIR     N/A N/A N/A CALM      29.92S HAZE

...CSRA...CENTRAL AND FAR SOUTHEAST GEORGIA...

CITY           SKY/WX    TMP DP  RH WIND       PRES   REMARKS
THOMSON          N/A     49  49 100 CALM      29.95S VSB 1/2
AUGUSTA-BUSH   MOCLDY    51  49  92 NW3       29.90S
AUGUSTA-DANIEL CLOUDY    52  49  89 NW7       29.91R FOG
SWAINSBORO     CLOUDY    59  55  88 MISG      29.93S
VIDALIA        CLEAR     61  57  88 CALM      29.93R
EASTMAN        FAIR      57  55  91 CALM      29.96R
HAZLEHURST     FAIR      60  57  90 NW3       29.92S
ALMA           CLEAR     61  55  81 NW5       29.92R
WAYCROSS       PTCLDY    64  60  86 CALM      29.94R
JESUP          FAIR      61  59  94 CALM      29.93R
BAXLEY         FAIR      61  59  94 NW3       29.92S
BRUNSWICK      PTCLDY    61  57  88 CALM      29.93R
SAINT SIMONS   PTCLDY    63  53  70 W3        29.91R

$$

SCZ027-028-034-036>038-045-046-048>050-GAZ119-141-070500-
...LAKE AND SUPPLEMENTAL COASTAL OBSERVATIONS...

STATION/POSITION TIME  TEMP    WIND        PRES    WAVE   SWELL
                       AIR SEA DIR/SP/G            HT/PER HT/PER/DIR
                 (UTC) (F)     (DEG/KT/KT) (MB)    (FT/S) (FT/S/D)
WINYAH BAY       0245   53     310/ 11     1011.0
LAKE MURRAY      0320   48      CALM  /  4 1012.2R
ACE BASIN NERRS  0245   58     330/  2     1011.0
FORT PULASKI     0354   61 62   30/  2/  2 1013.0R
SAPELO ISLAND    0300   62     310/  4     1012.0

$$

ANZ835-935-AMZ111-154-330-350-352-354-370-450-454-472-070500-
...C-MAN AND BUOY OBSERVATIONS...

STATION/POSITION TIME  TEMP    WIND        PRES    WAVE   SWELL
                       AIR SEA DIR/SP/G            HT/PER HT/PER/DIR
                 (UTC) (F)     (DEG/KT/KT) (MB)    (FT/S) (FT/S/D)
BUOY 41004       0350   63 74  310/ 17/ 21 1011.0R   5/ 7   3/ 90/13
BUOY 41008       0350   67 65  280/  8/  8 1012.0R   3/ 6   3/140/ 6
FOLLY BEACH CMAN 0400   55     320/  6/  8 1012.6R
CAPERS NEARSHORE 0308   56 61  340/ 10/ 16 1011.4R
FRIPP NEARSHORE  0408   60 62  320/  8/ 12 1012.1R


STATION/POSITION TIME  TEMP    WIND        PRES    WAVE   SWELL
                       AIR SEA DIR/SP/G            HT/PER HT/PER/DIR
                 (UTC) (F)     (DEG/KT/KT) (MB)    (FT/S) (FT/S/D)
5E ST. MARYS GA  0400      66                N/A     3/ 6
FRYING PAN BUOY  0400   61 74  300/ 19/ 25 1010.5
BUOY 41025       0350   62 74  280/ 29/ 35 1005.5R   9/ 6   3/ 80/10
CAPE LOOKOUT NC  0400   55     290/ 22/ 25 1008.1R
BUOY 41002       0350   75 74  240/ 23/ 31 1009.1R  11/ 9   7/240/ 9
BUOY 41010       NOT AVBL
ST AUGUSTINE FL  0400   64 67  250/  6/  9 1014.6R


$$




USA.gov is the U.S. government's official web portal to all federal, state and local government web resources and services.